Regional Weather Roundup
Issued by NWS Burlington, VT

Current Version | Previous Version | Text Only | Print | Product List | Glossary On
Versions: 1 2 3 4 5 6 7 8 9 10 11 12 13 14 15 16 17 18 19 20 21 22 23 24 25 26 27 28 29 30 31 32 33 34 35 36 37 38 39 40 41 42 43 44 45 46 47 48 49 50
000
ASUS41 KBTV 272030
RWRBTV
VERMONT REGIONAL WEATHER ROUNDUP
NATIONAL WEATHER SERVICE BURLINGTON VT
400 PM EDT THU JUL 27 2017

NOTE: "FAIR" INDICATES FEW OR NO CLOUDS BELOW 12,000 FEET WITH NO
SIGNIFICANT WEATHER AND/OR OBSTRUCTIONS TO VISIBILITY.

* THESE REPORTS ARE NOT UNDER NWS QUALITY CONTROL AND/OR DO NOT
  REPORT WEATHER SUCH AS PRECIPITATION AND FOG.

VTZ001>019-272100-
_____VERMONT_____


CITY           SKY/WX    TMP DP  RH WIND       PRES   REMARKS
BURLINGTON     PTSUNNY   75  66  73 S8        29.83F
MONTPELIER     CLOUDY    70  65  84 VRB5      29.91F
MORRISVILLE    CLOUDY    71  63  75 S12G18    29.85F
ST. JOHNSBURY*   N/A     69  67  93 MISG      29.84S
LYNDONVILLE*   PTSUNNY   70  63  79 S6        29.87F
MIDDLEBURY*    CLOUDY    71  65  83 S6        29.86F
RUTLAND*       CLOUDY    68  63  84 S7G16     29.88
SPRINGFIELD    CLOUDY    71  61  70 SW8       29.87F
HIGHGATE*      PTSUNNY   77  66  69 S3        29.81F
NEWPORT*       FAIR      73  62  67 W8        29.84F
BENNINGTON     CLOUDY    69  65  86 S3        29.91F
SUTTON*          N/A     68 N/A N/A MISG        N/A
ISLAND POND*     N/A     73 N/A N/A SW6         N/A
GALLUP MILLS*    N/A     68 N/A N/A MISG        N/A
UNION VILLAGE*   N/A     70 N/A N/A MISG        N/A
MT. MANSFIELD*   N/A     57 N/A N/A W23         N/A

_____LAKE CHAMPLAIN_____


CITY           SKY/WX    TMP DP  RH WIND       PRES   REMARKS
BURTON ISLAND*   N/A     72  66  83 SW10        N/A
COLCHESTER RF*   N/A     72  68  88 S17         N/A
DIAMOND ISL*     N/A     73  66  78 SE10        N/A

$$

NYZ007-026>031-035-052-083-087-272100-
_____NORTHERN NEW YORK_____


CITY           SKY/WX    TMP DP  RH WIND       PRES   REMARKS
PLATTSBURGH    PTSUNNY   75  66  73 SE13G20   29.81F
SARANAC LAKE   MOSUNNY   74  61  63 SW10G18   29.86F
MASSENA        SUNNY     79  64  60 W10       29.83F
OGDENSBURG*    FAIR      78  70  77 SW6       29.84S
POTSDAM*       CLOUDY    50  50 100 SW5       29.85S
STARK FALLS*     N/A     73 N/A N/A W7          N/A
WATERTOWN      MOSUNNY   75  68  78 SW12      29.87F
FT DRUM        MOSUNNY   75  64  67 W8        29.87F
ALBANY         LGT RAIN  69  66  90 S6        29.91S FOG
GLENS FALLS    CLOUDY    69  66  90 S12       29.86F FOG

$$
NHZ002-005-011-272100-
_____NEW HAMPSHIRE_____


CITY           SKY/WX    TMP DP  RH WIND       PRES   REMARKS
LEBANON        CLOUDY    70  64  81 S6        29.87F
KEENE          CLOUDY    68  65  90 S7        29.90F
MT WASHINGTON  LGT RAIN  50  50 100 W44         N/A  VSB 0
PLYMOUTH       CLOUDY    70  63  78 CALM      29.86F
WHITEFIELD     CLOUDY    67  62  84 SW6       29.87S

$$

_____REGIONAL QUEBEC LOCATIONS_____


CITY           SKY/WX    TMP DP  RH WIND       PRES   REMARKS
MONTREAL       MOSUNNY   77  63  61 W17G23    29.78F
QUEBEC CITY    PTSUNNY   73  63  68 SW14G20   29.74F
SHERBROOKE     PTSUNNY   72  63  73 SW8       29.81F

_____REGIONAL ONTARIO LOCATIONS_____


CITY           SKY/WX    TMP DP  RH WIND       PRES   REMARKS
OTTAWA         PTSUNNY   77  61  57 NW14G23   29.83F

______KEY______
VSB  - VISIBILITY IN MILES
WCI  - WIND CHILL INDEX
HX   - HEAT INDEX
$$
NNNN




USA.gov is the U.S. government's official web portal to all federal, state and local government web resources and services.